User: anonymous   Login
Location: Bothell
(47.7630°N, 122.2040°W)
Time: 03:01:08
(UTC-07:00)
Language:

Oscar 16 - Orbit

View from above orbital plane
View from above orbital plane
View from above satellite
View from above satellite

Ground track
Ground track

The orbit data is extracted from the following two-line orbital elements,

1 20439U 90005D   15140.83039133  .00000163  00000-0  75994-4 0  9991
2 20439 098.5394 077.4290 0009752 238.7119 183.5040 14.32540726322823
Epoch (UTC): 20 May 2015 19:55:45
Eccentricity: 0.0009752
inclination: 98.5394°
perigee height: 776 km
apogee height: 790 km
right ascension of ascending node: 77.4290°
argument of perigee: 238.7119°
revolutions per day: 14.32540726
mean anomaly at epoch: 183.5040°
orbit number at epoch: 32282

The dashed part of the orbit path shows where the satellite is in the earth's shadow,  

DLR